[[{"header":{"parameterUnit":"m.s-1","parameterCategory":1,"la1":30.2991,"la2":30.254,"lo1":-89.0895,"lo2":-89.0444,"dy":0.0017,"dx":0.0017,"nx":28,"ny":28,"refTime":"2024-06-22T09:00:00:Z","depth":0,"parameterNumber":2,"parameterNumberName":"U-component_of_WINDS"},"data":[0,0,0,0,0,0,0,0,0,0,0,0,0,0,0,0,0,0,0,0,0,0,0,0,0,0,0,0,0,0,0,0,0,0,0,0,0,0,0,0,0,0,0,0,0,0,0,0,0,0,0,0,0,0,0,0,0,0,-0.3984,-0.3983,0,-0.3901,-0.39,-0.3899,-0.3854,-0.3853,-0.3853,-0.3853,-0.3767,-0.3765,-0.3763,0,0,0,0,0,0,0,0,0,0,0,0,0,-0.4104,-0.4102,-0.3984,-0.3983,-0.3982,-0.3901,-0.39,-0.3899,-0.3854,-0.3853,-0.3853,-0.3853,-0.3768,-0.3765,-0.3763,0,0,0,0,0,0,0,0,0,0,0,0,0,-0.404,-0.4102,-0.3984,-0.395,-0.3946,-0.3901,-0.39,-0.3899,-0.3854,-0.3853,-0.3853,-0.3853,-0.3769,-0.3765,-0.3762,-0.3745,0,0,-0.3752,-0.3751,0,0,0,0,0,0,0,0,-0.4044,-0.4035,-0.3956,-0.3952,-0.3948,-0.3888,-0.3911,-0.3847,-0.3854,-0.3889,-0.3853,-0.3853,-0.3807,-0.3801,-0.3786,-0.3741,-0.3738,-0.3752,-0.375,-0.3749,-0.3748,0,0,0,0,0,0,0,-0.4048,-0.4039,-0.3951,-0.3955,-0.395,-0.3939,-0.3929,-0.3899,-0.385,-0.3886,-0.3882,-0.3873,-0.3805,-0.3789,-0.3783,-0.3736,-0.3752,-0.3749,-0.3747,-0.3746,-0.3676,-0.3676,0,0,0,0,0,0,-0.4058,-0.4043,-0.3954,-0.3949,-0.3996,-0.3937,-0.3926,-0.3907,-0.385,-0.3841,-0.3873,-0.3871,-0.3794,-0.3787,-0.378,-0.3758,-0.3749,-0.3745,-0.3744,-0.3676,-0.3676,-0.3677,0,0,0,0,0,0,-0.4061,-0.4051,-0.3957,-0.3995,-0.3982,-0.3935,-0.3914,-0.3905,-0.3889,-0.3841,-0.3832,-0.3866,-0.3794,-0.3785,-0.3755,-0.3754,-0.3744,-0.3741,-0.3676,-0.3676,-0.3676,-0.3712,0,0,0,0,0,0,-0.4065,-0.4052,-0.4045,-0.3995,-0.398,-0.3934,-0.3913,-0.3904,-0.3884,-0.388,-0.3831,-0.3823,-0.3793,-0.376,-0.3752,-0.3749,-0.3738,-0.3676,-0.3676,-0.3676,-0.3711,-0.3714,-0.3716,0,0,0,0,0,-0.4069,-0.4058,-0.4045,-0.4034,-0.397,-0.3934,-0.3925,-0.3891,-0.3884,-0.3877,-0.3846,-0.3824,-0.3756,-0.3757,-0.3748,-0.3744,-0.3676,-0.3676,-0.3676,-0.371,-0.3713,-0.3716,0,0,0,0,0,0,-0.4108,-0.405,-0.4035,-0.4007,-0.3976,-0.3926,-0.3915,-0.3896,-0.3865,-0.3863,-0.3822,-0.3812,-0.3786,-0.3762,-0.3765,-0.3726,-0.3714,-0.3712,-0.3742,-0.3745,-0.3748,-0.3754,-0.3736,0,0,0,0,0,-0.4113,-0.4088,-0.4039,-0.4019,-0.4004,-0.3963,-0.3946,-0.3923,-0.3888,-0.3874,-0.3841,-0.3808,-0.3779,-0.3761,-0.3731,-0.3708,-0.3697,-0.3701,-0.3703,-0.3705,-0.3704,-0.3691,-0.3693,-0.3677,-0.3677,-0.3677,0,0,-0.4124,-0.4089,-0.4076,-0.4026,-0.3999,-0.3974,-0.3952,-0.3926,-0.3907,-0.387,-0.384,-0.3815,-0.3776,-0.375,-0.3736,-0.3729,-0.3707,-0.3706,-0.3708,-0.3706,-0.3692,-0.3693,-0.3695,-0.3678,-0.3678,-0.3678,0,0,-0.4131,-0.4102,-0.4083,-0.4056,-0.4016,-0.3989,-0.3984,-0.3938,-0.392,-0.3889,-0.3861,-0.3839,-0.3789,-0.3763,-0.3743,-0.3743,-0.3722,-0.3734,-0.3747,-0.3735,-0.3736,-0.3737,-0.3738,-0.3738,-0.3733,-0.3733,-0.3733,0,-0.4149,-0.411,-0.4075,-0.4052,-0.4031,-0.3997,-0.3978,-0.3954,-0.3906,-0.3893,-0.3886,-0.3824,-0.3795,-0.3763,-0.3763,-0.3748,-0.3742,-0.3739,-0.3739,-0.374,-0.374,-0.374,-0.374,-0.3735,-0.3735,-0.3735,-0.3735,0,-0.4135,-0.4109,-0.4099,-0.4054,-0.4032,-0.4011,-0.3973,-0.3956,-0.3936,-0.391,-0.388,-0.3844,-0.3808,-0.3799,-0.3778,-0.3764,-0.3761,-0.3747,-0.3733,-0.3744,-0.3743,-0.3743,-0.3738,-0.3737,-0.3737,-0.3736,0,0,-0.4162,-0.41,-0.4097,-0.4077,-0.4031,-0.401,-0.3988,-0.3953,-0.3939,-0.3908,-0.3888,-0.3849,-0.3836,-0.3814,-0.379,-0.3779,-0.3783,-0.3766,-0.3765,-0.3771,-0.3766,-0.3777,-0.3778,-0.3769,-0.3769,-0.3769,-0.377,0,-0.4163,-0.4121,-0.409,-0.4061,-0.4037,-0.4006,-0.3987,-0.3957,-0.3932,-0.3909,-0.3881,-0.3854,-0.3839,-0.3826,-0.3814,-0.3785,-0.3781,-0.3784,-0.3751,-0.375,-0.3762,-0.3777,-0.3788,-0.3791,-0.3769,-0.3769,-0.3769,0,-0.4157,-0.4128,-0.4096,-0.4054,-0.4043,-0.4026,-0.3993,-0.3971,-0.3936,-0.3919,-0.3896,-0.3872,-0.3848,-0.3838,-0.3805,-0.3808,-0.3793,-0.3776,-0.3776,-0.3771,-0.376,-0.3774,-0.3791,-0.3792,-0.3768,-0.3768,-0.3769,0,-0.4181,-0.4134,-0.4109,-0.4093,-0.4043,-0.4032,-0.4011,-0.3977,-0.3958,-0.3929,-0.3917,-0.3885,-0.3868,-0.3844,-0.3813,-0.3808,-0.3783,-0.377,-0.3769,-0.377,-0.3765,-0.3766,-0.378,-0.3755,-0.3755,-0.3755,-0.3755,0,-0.4185,-0.4167,-0.4119,-0.4104,-0.4084,-0.4049,-0.403,-0.4006,-0.3976,-0.3956,-0.3927,-0.3909,-0.3869,-0.3846,-0.3821,-0.3798,-0.379,-0.3777,-0.377,-0.3779,-0.3781,-0.3769,-0.3768,-0.3755,-0.3755,-0.3755,-0.3755,0,-0.4208,-0.4175,-0.4146,-0.4102,-0.4091,-0.4078,-0.404,-0.4024,-0.3999,-0.3975,-0.3967,-0.3927,-0.3899,-0.3866,-0.3827,-0.381,-0.379,-0.378,-0.3802,-0.3798,-0.3799,-0.38,-0.3806,-0.3806,-0.3781,-0.3782,-0.3782,0,-0.4212,-0.4198,-0.4153,-0.4137,-0.4117,-0.4093,-0.4075,-0.404,-0.4022,-0.3984,-0.3973,-0.3943,-0.3917,-0.3875,-0.3843,-0.3813,-0.3803,-0.3807,-0.3798,-0.3808,-0.3803,-0.3805,-0.3804,-0.3809,-0.381,-0.381,-0.381,0,-0.4224,-0.4209,-0.4183,-0.4153,-0.4132,-0.4106,-0.4078,-0.4068,-0.4028,-0.401,-0.3981,-0.3962,-0.3923,-0.3894,-0.3861,-0.3839,-0.3819,-0.3814,-0.3812,-0.3821,-0.3834,-0.3828,-0.3809,-0.3814,-0.3813,-0.3813,-0.3813,-0.3813,-0.4238,-0.4224,-0.4191,-0.4164,-0.414,-0.4116,-0.41,-0.4073,-0.4049,-0.4015,-0.3996,-0.3969,-0.3937,-0.389,-0.387,-0.3848,-0.3841,-0.3838,-0.3837,-0.3837,-0.384,-0.3838,-0.3842,-0.3842,-0.3841,-0.3841,-0.3841,0,-0.4248,-0.4226,-0.4201,-0.4165,-0.4144,-0.4127,-0.4097,-0.4081,-0.4057,-0.4029,-0.4005,-0.3973,-0.3945,-0.3912,-0.3883,-0.3872,-0.3862,-0.3865,-0.3866,-0.3861,-0.3848,-0.3853,-0.3874,-0.3874,-0.3874,-0.3874,-0.3874,-0.3874,-0.4251,-0.4228,-0.4209,-0.4175,-0.4152,-0.4125,-0.4109,-0.4087,-0.4065,-0.4031,-0.4008,-0.3987,-0.3957,-0.3926,-0.39,-0.3891,-0.3882,-0.3888,-0.3876,-0.3865,-0.3862,-0.3859,-0.3863,-0.3886,-0.3886,-0.3891,-0.3891,-0.3891]},{"header":{"parameterUnit":"m.s-1","parameterCategory":1,"la1":30.2991,"la2":30.254,"lo1":-89.0895,"lo2":-89.0444,"dy":0.0017,"dx":0.0017,"nx":28,"ny":28,"refTime":"2024-06-22T09:00:00:Z","depth":0,"parameterNumber":3,"parameterNumberName":"V-component_of_WINDS"},"data":[0,0,0,0,0,0,0,0,0,0,0,0,0,0,0,0,0,0,0,0,0,0,0,0,0,0,0,0,0,0,0,0,0,0,0,0,0,0,0,0,0,0,0,0,0,0,0,0,0,0,0,0,0,0,0,0,0,0,3.9687,3.9687,0,3.9642,3.9642,3.9641,3.9642,3.9642,3.9643,3.9643,3.9591,3.9589,3.9587,0,0,0,0,0,0,0,0,0,0,0,0,0,3.9768,3.9767,3.9687,3.9687,3.9686,3.9642,3.9642,3.9641,3.9641,3.9642,3.9643,3.9644,3.9592,3.959,3.9587,0,0,0,0,0,0,0,0,0,0,0,0,0,3.9729,3.9766,3.9687,3.9681,3.968,3.9642,3.9642,3.9641,3.9641,3.9642,3.9643,3.9644,3.9593,3.959,3.9587,3.955,0,0,3.9578,3.9577,0,0,0,0,0,0,0,0,3.9731,3.9726,3.9683,3.9681,3.968,3.9649,3.9651,3.961,3.9641,3.9656,3.9643,3.9644,3.9609,3.9605,3.9594,3.9548,3.9546,3.9578,3.9576,3.9575,3.9574,0,0,0,0,0,0,0,3.9734,3.9728,3.9669,3.9682,3.968,3.9679,3.9674,3.9643,3.9628,3.9655,3.9655,3.965,3.9609,3.9597,3.9593,3.9545,3.9578,3.9575,3.9573,3.9572,3.9467,3.9466,0,0,0,0,0,0,3.9739,3.973,3.9671,3.9668,3.9709,3.9677,3.9672,3.9658,3.9628,3.9625,3.9649,3.965,3.9602,3.9596,3.9591,3.9547,3.9575,3.9572,3.957,3.9468,3.9466,3.9465,0,0,0,0,0,0,3.974,3.9733,3.9672,3.9699,3.9691,3.9674,3.9659,3.9656,3.9645,3.9624,3.962,3.964,3.9602,3.9595,3.9561,3.9545,3.9571,3.9568,3.9469,3.9467,3.9466,3.9458,0,0,0,0,0,0,3.9743,3.9734,3.9721,3.9699,3.969,3.9644,3.9658,3.9655,3.964,3.9641,3.9615,3.9611,3.9602,3.9565,3.9558,3.9541,3.9566,3.947,3.9468,3.9466,3.9459,3.9456,3.9453,0,0,0,0,0,3.9746,3.9719,3.972,3.9713,3.9674,3.9644,3.9638,3.963,3.9639,3.9625,3.9612,3.9612,3.9548,3.9562,3.9554,3.9536,3.9471,3.9469,3.9466,3.946,3.9457,3.9453,0,0,0,0,0,0,3.9737,3.9716,3.9717,3.9683,3.9665,3.9644,3.9626,3.9626,3.9604,3.9605,3.9595,3.9589,3.9555,3.9542,3.9557,3.9499,3.951,3.9506,3.9509,3.9505,3.9502,3.9505,3.9563,0,0,0,0,0,3.9732,3.9711,3.9693,3.9664,3.9656,3.9643,3.9629,3.9625,3.9605,3.9597,3.9581,3.9561,3.9536,3.952,3.9496,3.9458,3.9451,3.9441,3.9438,3.9436,3.9432,3.9411,3.9406,3.9458,3.9458,3.9458,0,0,3.972,3.9705,3.9693,3.9662,3.9648,3.9626,3.9636,3.9611,3.9594,3.9593,3.956,3.9548,3.9524,3.9488,3.9471,3.9476,3.9417,3.9433,3.9431,3.9429,3.9408,3.9403,3.9399,3.9456,3.9456,3.9457,0,0,3.9686,3.9674,3.9649,3.9635,3.9614,3.9606,3.96,3.9579,3.9571,3.9539,3.9538,3.9516,3.9474,3.9457,3.9443,3.9405,3.9404,3.9397,3.9381,3.936,3.9356,3.9353,3.9339,3.9334,3.9393,3.9393,3.9393,0,3.9673,3.9641,3.9635,3.9611,3.9598,3.9598,3.9572,3.9558,3.953,3.952,3.9527,3.9475,3.9458,3.9419,3.941,3.9398,3.939,3.9399,3.9358,3.9354,3.935,3.9337,3.9332,3.9393,3.9393,3.9393,3.9393,0,3.9625,3.9603,3.9585,3.9561,3.9545,3.952,3.951,3.9494,3.9492,3.9482,3.9449,3.943,3.9403,3.9393,3.9389,3.9352,3.9356,3.936,3.9372,3.9345,3.9332,3.9327,3.9392,3.9392,3.9392,3.9392,0,0,3.9584,3.9559,3.9552,3.9541,3.9519,3.9501,3.9475,3.9451,3.9438,3.9418,3.9396,3.9361,3.9366,3.935,3.9344,3.9326,3.9297,3.9332,3.9332,3.9326,3.9256,3.9253,3.9247,3.9297,3.9296,3.9295,3.9258,0,3.9548,3.9505,3.9501,3.9462,3.9441,3.9442,3.9419,3.9403,3.9393,3.9373,3.9361,3.9337,3.9345,3.9335,3.9318,3.9304,3.9283,3.9307,3.9275,3.9274,3.9281,3.924,3.9236,3.9202,3.9253,3.9252,3.9251,0,3.95,3.9482,3.9442,3.9424,3.9415,3.9395,3.9373,3.9354,3.9334,3.9329,3.9312,3.9309,3.9282,3.9295,3.9256,3.9273,3.926,3.9251,3.9249,3.9246,3.9261,3.9235,3.9191,3.9186,3.9243,3.9244,3.9244,0,3.9474,3.9439,3.9411,3.9402,3.938,3.9366,3.9356,3.9338,3.9324,3.9304,3.9294,3.927,3.9257,3.9238,3.9228,3.9238,3.919,3.9202,3.9183,3.9184,3.9173,3.9173,3.9125,3.9164,3.9165,3.9165,3.9165,0,3.9434,3.9409,3.9399,3.9382,3.9354,3.9349,3.9321,3.9311,3.9295,3.9275,3.9273,3.9253,3.9242,3.922,3.9212,3.9181,3.9175,3.9169,3.9167,3.9169,3.917,3.916,3.9162,3.9163,3.9164,3.9164,3.9164,0,3.9399,3.9392,3.9362,3.9344,3.9339,3.932,3.9304,3.9286,3.9278,3.9252,3.9246,3.9231,3.9206,3.9195,3.9163,3.9157,3.9122,3.9122,3.913,3.9129,3.9111,3.9113,3.9055,3.9047,3.9091,3.9091,3.909,0,3.9374,3.9356,3.9337,3.9325,3.9315,3.9294,3.9281,3.9274,3.926,3.9237,3.9222,3.9197,3.9177,3.9137,3.9122,3.9098,3.9097,3.9078,3.9093,3.9096,3.9096,3.9098,3.9096,3.9075,3.9075,3.9074,3.9074,0,3.933,3.9328,3.9309,3.929,3.9274,3.9258,3.9242,3.9231,3.9222,3.9205,3.9181,3.9165,3.9134,3.9109,3.9084,3.9072,3.9071,3.907,3.9064,3.9066,3.9071,3.9068,3.9122,3.9071,3.9071,3.9071,3.9072,3.9072,3.9299,3.9283,3.9269,3.9248,3.9236,3.9221,3.9204,3.9195,3.9175,3.9151,3.9147,3.9121,3.9102,3.9069,3.9056,3.9035,3.9039,3.9031,3.9028,3.9027,3.9026,3.9075,3.903,3.903,3.903,3.903,3.903,0,3.9255,3.9246,3.9228,3.9207,3.9191,3.9194,3.9176,3.9162,3.914,3.9123,3.9105,3.9076,3.9053,3.9037,3.9013,3.8999,3.8997,3.8992,3.8993,3.899,3.9023,3.9031,3.8994,3.8994,3.8994,3.8994,3.8994,3.8994,3.9231,3.9204,3.92,3.9167,3.9158,3.9134,3.9124,3.911,3.9097,3.9067,3.9048,3.9039,3.9023,3.8998,3.8976,3.8972,3.8962,3.8957,3.8953,3.8984,3.8988,3.8991,3.8998,3.8955,3.8955,3.8922,3.8922,3.8922]}]]